Theta_e
311 311 311 312 313 314 316 317 317 319 320 321 322 324 322 321 319 311 306 309 312 324 321 303 306 306 305 303 305 306 299 297 299 298 300 303 304 305 307 307 309 313 316 319 327
310 310 309 310 311 312 314 316 316 317 318 320 320 322 322 321 310 306 316 319 318 324 301 303 300 305 298 301 302 299 295 299 301 305 302 303 305 307 307 309 310 314 320 325 327
309 309 308 308 310 311 312 314 315 316 316 318 319 321 321 315 305 305 319 318 318 321 308 302 303 304 296 299 299 298 294 299 301 308 308 305 304 306 306 305 311 313 319 324 324
307 308 308 308 308 309 310 312 313 314 315 317 318 320 320 308 292 310 320 316 321 318 309 299 300 299 296 295 299 296 300 300 302 308 308 305 307 303 306 307 312 318 324 324 324
305 306 307 307 307 307 309 310 312 313 314 315 317 318 313 302 301 312 322 316 312 315 303 298 298 298 294 295 297 297 298 300 303 304 305 307 305 304 306 307 311 322 324 324 324
306 306 307 308 307 307 307 309 311 312 313 314 315 317 309 297 311 312 313 308 307 306 305 298 299 299 296 294 294 296 298 297 299 300 303 301 301 303 307 309 311 320 321 323 324
306 306 306 306 307 307 307 308 310 311 312 313 314 312 305 303 307 308 308 308 309 308 300 300 300 299 296 294 297 299 294 295 295 299 300 302 297 299 304 307 313 316 319 320 322
306 306 306 306 306 307 307 307 309 310 311 312 313 307 298 313 313 311 307 307 311 312 309 307 305 304 299 298 297 293 293 287 292 298 299 300 290 298 303 304 306 311 311 316 319
305 306 306 306 306 306 307 307 309 310 310 310 304 302 296 314 307 311 308 307 310 309 310 311 308 299 298 291 288 289 282 286 289 296 297 296 292 298 299 300 301 301 304 309 312
305 305 305 305 306 306 306 307 307 306 305 306 305 295 299 298 307 309 310 308 305 305 304 302 297 292 290 287 281 284 283 286 287 290 295 294 293 296 295 295 296 296 298 298 302
304 304 305 305 305 306 303 301 294 292 295 290 291 294 299 304 308 306 308 304 303 299 290 297 289 285 288 290 288 289 286 285 286 290 289 289 291 297 298 294 295 295 295 296 296
304 304 304 304 305 305 300 294 292 294 287 294 294 295 298 303 297 302 308 298 297 291 294 291 285 288 291 293 292 289 286 283 286 290 289 287 287 292 295 295 296 297 295 295 296
304 303 303 303 304 300 297 296 302 299 286 289 293 292 293 301 296 298 303 301 294 292 291 287 289 293 291 290 290 288 285 283 284 287 287 284 283 285 290 293 295 295 295 295 296
303 303 302 302 296 297 295 300 301 299 273 279 288 291 294 298 293 302 304 300 296 291 292 290 293 291 288 287 290 285 289 289 287 285 280 283 277 281 285 287 290 294 294 295 296
303 301 301 300 295 293 297 301 301 292 259 280 288 298 296 292 293 296 303 299 292 291 292 286 289 289 286 287 291 286 291 289 288 284 281 279 277 279 281 282 284 287 291 294 297
303 302 302 299 297 296 301 301 294 272 260 274 289 287 288 290 291 294 297 300 297 292 292 290 293 292 290 290 291 290 288 286 285 283 277 280 279 278 281 283 285 288 290 291 292
304 301 299 298 292 300 296 292 274 261 273 274 282 286 285 285 287 289 289 290 287 283 284 288 288 290 290 287 289 287 283 273 271 269 273 279 279 283 284 286 287 289 289 289 290
304 302 298 296 297 299 292 280 264 261 262 280 283 283 282 285 285 286 285 285 290 285 281 281 279 288 291 288 285 286 284 276 270 270 273 280 277 280 288 291 291 290 289 290 290
303 295 292 293 296 295 285 272 268 264 278 280 281 277 279 283 282 283 281 284 287 289 280 279 280 288 290 291 290 285 282 285 280 275 273 276 279 284 287 288 289 290 291 291 289
291 291 290 296 295 288 279 271 269 279 282 282 273 279 276 277 280 279 279 284 286 290 290 284 279 287 289 291 291 287 289 281 279 266 265 275 276 277 282 286 288 288 289 290 291
291 281 290 295 292 284 272 266 270 281 283 280 278 273 278 276 278 277 279 282 284 286 289 287 283 282 287 286 285 285 284 284 282 278 272 270 274 281 284 286 287 288 289 290 292
286 275 294 296 277 278 272 271 282 282 279 279 280 281 279 279 276 276 277 281 286 287 285 288 284 280 282 287 290 290 287 286 280 277 279 277 275 285 285 286 285 288 289 290 292
281 285 296 293 270 268 270 276 281 280 281 275 276 281 281 279 273 279 281 285 287 285 282 284 283 277 277 282 287 286 288 288 287 281 278 274 277 286 287 287 286 288 290 289 291
280 276 285 286 277 270 265 268 272 283 281 282 276 278 280 278 281 276 280 285 288 287 289 287 281 277 274 277 281 283 285 288 286 281 280 280 281 283 284 284 286 287 289 289 290
279 273 277 275 279 271 275 275 276 274 277 282 279 278 274 270 278 277 280 282 286 288 288 285 276 279 280 281 281 281 282 284 284 285 280 284 283 286 286 286 285 287 287 288 289
279 278 277 277 270 273 275 271 277 277 277 274 275 280 277 272 277 277 280 279 279 284 284 286 275 280 276 281 281 278 280 280 280 283 285 285 284 291 288 287 288 289 287 289 290
284 285 281 280 277 274 273 272 279 280 281 282 281 280 279 280 281 282 284 284 283 281 281 281 278 274 270 280 278 268 276 279 280 284 285 282 287 291 290 290 289 289 288 289 290
Wind_Speed
16 14 13 13 15 16 16 16 14 15 12 10 10 11 6 8 10 4 6 3 2 7 9 8 6 5 2 3 3 2 4 3 4 6 4 5 5 3 1 7 1 3 6 5 14
15 15 14 13 14 15 16 15 13 13 13 10 10 11 6 6 3 8 6 3 3 4 4 3 3 5 1 1 2 4 3 9 3 2 3 4 5 9 5 4 1 1 3 10 16
14 14 14 12 14 14 15 15 14 13 13 9 10 10 5 3 5 6 4 3 3 0 3 2 2 1 3 1 2 4 5 4 2 2 2 6 4 1 8 4 7 10 10 13 14
10 12 10 14 14 16 15 13 13 13 13 10 8 10 3 2 8 2 1 1 3 2 2 2 1 4 4 5 3 3 5 3 1 0 1 5 1 2 6 7 7 10 20 16 15
12 14 13 13 14 17 17 15 13 12 13 13 10 10 1 5 8 3 1 4 3 2 4 4 5 5 6 5 5 4 5 3 1 3 1 0 2 3 6 3 3 11 12 17 17
12 15 18 18 17 16 17 16 13 13 12 13 11 9 4 8 4 3 3 4 3 4 3 3 5 4 3 4 6 6 6 3 2 3 1 1 2 1 5 3 5 13 13 12 14
14 15 16 16 17 16 15 16 14 13 12 12 11 4 7 6 1 0 2 2 2 1 2 3 3 2 4 2 3 3 4 1 5 5 4 3 5 8 2 4 8 10 12 11 12
16 17 17 15 16 16 15 16 14 13 11 13 11 1 7 4 4 2 2 3 3 3 2 3 4 1 2 1 4 5 3 4 2 7 4 8 7 10 8 6 7 8 7 8 10
16 18 15 15 15 15 16 15 15 12 10 8 3 3 7 3 4 4 2 1 1 1 3 1 2 2 1 7 3 3 5 4 4 8 5 6 6 7 5 8 9 8 8 8 8
14 14 14 14 14 17 15 14 8 6 5 2 2 2 6 5 3 3 3 1 1 2 1 2 4 2 1 5 11 6 4 4 8 6 6 7 9 6 3 6 9 8 9 8 8
13 14 13 12 13 13 7 1 3 3 3 7 5 5 4 3 3 4 4 4 2 2 5 1 3 10 8 5 1 6 3 5 2 2 3 7 7 15 8 5 8 9 8 8 10
10 13 11 10 12 9 3 3 2 2 5 9 10 7 7 1 3 4 8 7 5 5 3 2 8 3 1 2 1 3 4 4 2 1 4 6 8 12 9 7 10 13 9 10 6
9 10 9 9 9 2 2 3 4 7 4 5 7 6 5 5 5 5 11 5 6 7 6 5 2 8 6 4 7 4 5 4 2 3 0 4 8 7 8 8 9 8 9 7 11
8 6 6 8 4 3 2 2 5 4 4 6 5 8 5 5 6 6 9 7 4 13 6 6 5 4 3 6 8 12 7 3 1 3 4 2 11 7 7 9 8 13 11 13 14
7 2 0 5 1 4 3 3 2 2 5 5 4 3 7 10 4 4 5 2 8 7 7 6 5 5 8 6 8 5 7 8 5 3 3 2 4 8 2 6 8 12 16 18 20
8 4 2 3 2 3 6 4 4 6 6 3 2 4 6 5 3 2 4 1 3 6 1 5 2 5 7 5 12 8 6 7 5 3 7 8 7 6 7 7 6 8 12 15 12
9 5 6 2 1 7 5 2 4 5 5 5 4 5 6 5 9 4 6 13 6 6 9 5 6 2 4 5 2 4 8 2 3 1 10 2 7 19 4 7 9 10 10 7 7
11 7 2 3 2 6 4 3 5 3 6 4 1 5 8 6 8 3 4 10 12 2 4 7 4 11 6 6 7 13 11 7 8 6 3 2 12 8 12 11 8 8 9 8 5
8 2 1 2 3 3 3 3 5 5 5 6 1 4 5 4 5 5 5 7 9 8 5 6 5 1 5 4 9 5 12 5 4 2 2 6 9 9 9 10 8 11 10 13 4
4 2 2 2 5 4 4 3 2 3 5 5 4 4 6 8 5 5 5 5 3 10 4 1 2 5 6 2 6 7 7 6 2 2 4 5 5 7 5 8 8 8 9 8 4
4 4 3 3 4 4 2 6 4 4 2 4 3 4 2 5 3 6 7 6 11 9 4 5 3 2 6 10 15 5 6 4 5 6 6 2 8 7 8 7 6 7 5 6 6
3 3 0 3 4 2 1 4 4 2 4 3 2 1 2 3 3 4 3 3 6 4 7 3 4 9 9 2 2 15 18 18 8 12 8 2 8 4 5 2 2 6 7 5 3
4 2 2 2 3 2 4 4 2 1 1 2 3 2 2 1 2 3 6 7 8 3 2 5 6 7 1 4 2 5 15 14 17 3 13 6 10 3 8 2 3 6 8 4 1
5 4 1 3 3 6 3 3 3 1 1 2 2 3 3 2 2 3 4 3 8 5 11 6 3 6 4 2 4 4 7 19 14 12 18 15 20 7 5 4 4 5 4 4 1
3 3 3 4 3 3 2 3 1 3 2 1 2 3 4 3 3 2 2 5 2 4 9 5 5 4 2 7 2 4 8 6 16 19 11 20 22 15 7 8 5 7 4 1 4
5 4 3 2 2 6 4 3 3 4 3 4 3 2 4 5 5 7 2 2 4 3 5 1 2 4 4 3 1 7 14 12 9 9 17 23 27 14 4 5 6 9 7 8 9
1 1 5 2 2 4 4 5 3 2 3 3 4 1 3 8 7 11 6 5 5 2 2 1 1 0 4 3 3 6 10 12 5 7 10 19 26 16 15 10 9 9 8 10 10
Wind_Direction
307 306 317 328 328 322 318 315 308 301 290 291 297 280 266 302 312 264 232 241 135 340 319 292 296 319 16 355 16 103 76 181 196 155 238 158 149 178 100 125 117 183 154 209 134
300 304 305 321 316 326 320 317 317 313 288 294 296 304 258 317 268 247 250 263 319 333 308 300 276 327 335 356 29 97 139 199 211 186 242 205 168 159 137 142 153 71 19 130 138
311 322 317 314 320 314 321 322 320 313 314 298 307 311 239 330 300 260 191 191 268 229 251 259 291 259 217 73 189 159 198 205 207 238 240 172 164 211 126 224 203 182 159 151 153
317 301 318 315 311 310 311 318 313 315 309 308 316 313 238 213 234 302 160 16 314 99 234 193 195 168 176 187 185 164 209 218 239 330 21 149 173 202 188 216 193 172 163 157 168
321 309 300 302 304 300 300 305 306 309 306 310 319 322 209 220 246 285 171 307 304 117 225 188 164 155 185 196 145 185 190 206 91 351 20 109 145 180 252 296 135 134 161 174 181
305 302 303 299 298 295 288 294 302 296 295 305 319 328 244 231 238 180 201 314 235 202 218 173 217 195 191 206 168 205 175 183 246 240 281 223 268 62 252 123 145 156 179 185 191
314 312 303 302 296 292 287 287 287 287 284 297 310 315 256 244 347 210 207 216 244 253 230 211 247 159 144 171 222 137 148 312 202 194 223 135 278 231 214 147 167 189 190 193 204
317 308 299 295 295 294 286 277 275 276 285 286 304 275 258 233 280 292 186 278 255 262 247 251 233 198 188 261 39 128 99 173 255 153 232 135 251 256 201 149 197 210 218 214 215
319 315 294 291 291 291 283 281 282 269 260 276 324 208 265 92 209 218 223 221 158 217 280 229 161 201 123 129 82 334 192 180 310 202 142 179 239 245 172 186 224 224 226 228 241
327 324 311 302 298 291 271 273 280 280 283 221 243 310 259 218 207 188 190 94 40 119 54 65 56 160 60 169 195 168 173 199 187 221 199 203 239 247 187 180 223 219 243 241 239
326 326 320 310 300 294 267 337 207 264 249 197 201 251 2 325 144 224 165 125 100 76 180 215 153 209 197 229 171 139 178 190 222 270 176 243 237 247 222 212 230 233 230 250 247
316 328 325 325 315 297 182 219 242 12 286 237 255 267 293 333 289 216 150 164 155 177 147 114 238 176 182 230 318 137 165 200 288 224 172 292 263 256 229 222 210 228 237 227 231
295 320 328 331 334 20 167 165 311 3 239 271 206 217 209 169 261 208 177 161 161 175 189 191 174 177 170 176 205 203 185 168 144 353 114 330 275 232 252 226 231 236 230 233 223
279 297 326 333 3 325 212 277 325 331 60 268 206 239 164 155 268 193 198 166 178 200 151 243 250 120 185 221 183 230 164 164 252 72 241 36 278 265 245 240 224 236 236 238 237
254 275 234 73 128 304 3 96 293 78 58 259 184 323 158 171 160 223 185 131 183 158 173 215 180 168 201 214 169 227 153 190 163 145 18 208 308 263 277 261 247 235 240 241 241
231 241 179 137 145 236 351 9 56 42 261 340 231 159 142 186 203 116 143 16 90 160 256 219 169 181 199 161 180 146 88 57 55 95 258 206 181 215 199 203 248 244 239 241 235
212 192 139 132 331 107 52 28 86 134 305 320 10 340 178 173 207 175 182 192 167 168 205 178 235 263 157 125 154 136 133 30 9 3 234 290 190 248 226 239 224 239 268 254 236
222 189 107 206 120 135 80 41 87 244 244 308 246 317 186 157 214 219 168 205 210 161 138 192 228 184 182 191 169 201 182 159 183 202 233 166 233 249 230 265 252 253 260 287 245
171 66 38 325 154 74 62 23 212 200 262 322 314 74 347 142 154 115 223 218 213 191 191 176 246 272 159 157 156 187 214 161 107 45 63 217 289 291 257 266 251 251 256 254 261
102 106 342 5 126 86 82 244 211 225 313 354 44 16 36 20 53 205 179 344 232 201 144 264 268 211 201 125 250 175 142 198 111 139 258 258 269 244 319 272 270 274 258 263 209
78 74 293 108 73 59 171 232 273 244 352 28 338 36 124 121 54 352 0 60 6 332 304 164 201 309 118 203 200 170 193 190 156 162 196 265 260 220 248 257 263 273 297 269 227
103 68 284 9 62 71 150 196 228 297 7 354 146 331 205 171 144 140 12 352 283 76 329 286 226 230 222 156 212 229 211 202 197 212 238 281 260 276 194 47 291 313 290 255 201
86 83 31 68 122 295 339 299 290 287 275 18 354 344 14 2 41 152 200 222 227 84 57 13 243 205 230 341 121 243 229 223 225 46 223 203 253 232 295 9 341 340 348 319 70
99 122 82 40 123 132 131 286 296 322 318 120 131 32 340 298 187 189 174 211 178 176 161 140 314 22 287 355 338 199 235 225 220 223 233 228 249 237 322 316 357 332 8 22 348
44 234 195 188 203 94 120 185 243 301 349 172 322 217 150 329 326 276 349 2 225 244 171 184 223 230 230 273 267 305 286 309 246 228 216 236 247 247 236 245 248 267 286 201 234
123 133 22 95 29 126 42 272 219 286 156 272 189 213 157 171 218 302 34 150 222 310 155 221 273 173 222 192 187 315 288 254 246 281 254 258 263 257 243 260 245 232 231 226 235
304 51 101 75 66 103 220 234 222 172 267 229 219 157 231 243 201 230 247 250 220 290 17 207 243 113 243 174 143 312 232 234 229 215 250 252 259 278 275 251 248 248 226 234 244